OK1FET-6 Weather Reports


time (UTC)temp
F
wind
direction
speed
knots
gust
knots
rain 1hr
in
rain 24hr
in
rain mn
in
humidity
%
barometer
mb
20260507080317 64 294 3.5 5.2 0.00 0.28 0.00 89 1010.6
20260507075819 61 264 5.2 8.7 0.00 0.28 0.00 90 1010.7
20260507075320 60 272 4.3 11.3 0.00 0.28 0.00 90 1010.7
20260507074822 59 253 4.3 7.0 0.00 0.28 0.00 90 1010.7
20260507074323 58 254 3.5 7.8 0.00 0.28 0.00 90 1010.7
20260507073825 58 248 4.3 11.3 0.00 0.28 0.00 90 1010.6
20260507073326 58 264 4.3 8.7 0.00 0.28 0.00 90 1010.6
20260507072828 58 281 3.5 6.1 0.00 0.28 0.00 90 1010.6
20260507072329 58 280 4.3 8.7 0.00 0.28 0.00 90 1010.5
20260507071831 59 249 3.5 6.1 0.00 0.28 0.00 90 1010.5
20260507071332 59 257 2.6 4.3 0.00 0.28 0.00 91 1010.4
20260507070834 59 300 2.6 6.1 0.00 0.28 0.00 91 1010.3
20260507070335 59 294 1.7 5.2 0.00 0.28 0.00 92 1010.2
20260507065837 59 269 3.5 6.1 0.00 0.28 0.00 92 1010.2
20260507065338 59 250 2.6 5.2 0.00 0.28 0.00 92 1010.2
20260507064840 59 260 3.5 8.7 0.00 0.28 0.00 92 1010.1
20260507064341 58 268 3.5 6.1 0.00 0.28 0.00 93 1010.1
20260507063843 58 259 2.6 6.1 0.00 0.28 0.00 93 1010.1
20260507063344 58 265 3.5 6.1 0.00 0.28 0.00 93 1010.1
20260507062845 57 234 1.7 3.5 0.00 0.28 0.00 93 1010.0
20260507062347 57 261 2.6 5.2 0.00 0.28 0.00 93 1010.0
20260507061848 56 253 1.7 5.2 0.00 0.28 0.00 93 1009.9
20260507061350 55 265 2.6 4.3 0.00 0.28 0.00 93 1009.9
20260507060851 55 266 2.6 6.1 0.00 0.28 0.00 93 1009.8
20260507060353 55 230 0.9 1.7 0.00 0.28 0.00 93 1009.7
20260507055854 54 259 2.6 6.1 0.00 0.28 0.00 93 1009.7
20260507055355 54 251 2.6 4.3 0.00 0.28 0.00 93 1009.7
20260507054857 54 265 2.6 4.3 0.00 0.28 0.00 93 1009.6
20260507054358 54 242 1.7 4.3 0.00 0.28 0.00 93 1009.6
20260507053900 54 250 2.6 5.2 0.00 0.28 0.00 93 1009.6
20260507053401 54 259 3.5 7.0 0.00 0.28 0.00 93 1009.4
20260507052903 53 262 2.6 5.2 0.00 0.28 0.00 93 1009.4
20260507052404 53 255 1.7 3.5 0.00 0.28 0.00 93 1009.4
20260507051906 53 250 2.6 6.1 0.00 0.28 0.00 93 1009.5
20260507051407 53 252 1.7 4.3 0.00 0.28 0.00 93 1009.4
20260507050909 53 243 2.6 5.2 0.00 0.28 0.00 93 1009.3
20260507050410 53 251 1.7 5.2 0.00 0.28 0.00 93 1009.3
20260507045912 52 242 0.9 2.6 0.00 0.28 0.00 93 1009.3
20260507045413 52 257 1.7 4.3 0.00 0.28 0.00 93 1009.2
20260507044914 51 240 1.7 2.6 0.00 0.28 0.00 93 1009.1
20260507044416 51 242 0.9 2.6 0.00 0.28 0.00 92 1008.9
20260507043917 50 233 0.9 2.6 0.00 0.28 0.00 92 1008.9
20260507043419 50 261 0.9 2.6 0.00 0.28 0.00 91 1008.9
20260507042920 50 216 0.9 2.6 0.00 0.28 0.00 91 1008.9
20260507042422 50 232 0.0 1.7 0.00 0.28 0.00 91 1008.8
20260507041924 50 209 0.0 2.6 0.00 0.28 0.00 91 1008.6
20260507041425 50 197 0.0 0.9 0.00 0.28 0.00 90 1008.6
20260507040927 50 220 0.9 3.5 0.00 0.28 0.00 90 1008.6
20260507040428 50 211 0.9 1.7 0.00 0.28 0.00 90 1008.6
20260507035929 50 224 0.9 2.6 0.00 0.28 0.00 91 1008.6
20260507035430 50 242 1.7 2.6 0.00 0.28 0.00 90 1008.4
20260507034932 50 255 0.9 2.6 0.00 0.28 0.00 90 1008.4
20260507034433 50 240 0.9 3.5 0.00 0.28 0.00 90 1008.4
20260507033935 50 244 0.9 2.6 0.00 0.28 0.00 90 1008.5
20260507033436 50 241 1.7 2.6 0.00 0.28 0.00 90 1008.4
20260507032938 50 232 1.7 4.3 0.00 0.28 0.00 90 1008.4
20260507032439 50 230 1.7 3.5 0.00 0.28 0.00 90 1008.4
20260507031941 50 253 1.7 3.5 0.00 0.28 0.00 90 1008.4
20260507031442 50 250 1.7 3.5 0.00 0.28 0.00 90 1008.4
20260507030944 50 250 0.9 3.5 0.00 0.28 0.00 90 1008.3
20260507030445 51 241 1.7 3.5 0.00 0.28 0.00 90 1008.3
20260507025947 51 237 1.7 4.3 0.00 0.28 0.00 90 1008.3
20260507025448 51 242 0.9 2.6 0.00 0.28 0.00 90 1008.1
20260507024950 51 232 0.9 2.6 0.00 0.28 0.00 89 1008.1
20260507024451 51 254 0.9 1.7 0.00 0.28 0.00 89 1008.1
20260507023952 51 230 0.9 3.5 0.00 0.28 0.00 89 1008.1
20260507023454 51 237 0.9 2.6 0.00 0.28 0.00 89 1008.1
20260507022955 52 258 0.9 1.7 0.00 0.28 0.00 89 1008.1
20260507022457 52 232 0.0 1.7 0.00 0.28 0.00 89 1008.0
20260507021958 52 261 0.9 2.6 0.00 0.28 0.00 90 1008.0
20260507021500 52 262 0.9 2.6 0.00 0.28 0.00 90 1008.0
20260507021001 52 248 0.9 6.1 0.00 0.28 0.00 90 1008.0
20260507020503 52 264 1.7 3.5 0.00 0.28 0.00 90 1008.0
20260507020004 52 279 2.6 6.1 0.00 0.28 0.00 90 1007.9
20260507015506 52 250 2.6 4.3 0.00 0.28 0.00 90 1007.9
20260507015007 53 257 1.7 5.2 0.00 0.28 0.00 90 1007.8
20260507014509 53 244 2.6 6.1 0.00 0.28 0.00 90 1007.7
20260507014011 53 259 0.9 2.6 0.00 0.28 0.00 90 1007.7
20260507013512 53 246 1.7 6.1 0.00 0.28 0.00 90 1007.7
20260507013013 53 242 1.7 4.3 0.00 0.28 0.00 90 1007.6
20260507012515 53 239 0.9 2.6 0.00 0.28 0.00 89 1007.6
20260507012016 53 230 0.9 2.6 0.00 0.28 0.00 89 1007.5
20260507011518 53 242 0.9 1.7 0.00 0.28 0.00 90 1007.5
20260507011019 53 235 0.0 1.7 0.00 0.28 0.00 90 1007.4
20260507010520 54 229 0.0 1.7 0.00 0.28 0.00 89 1007.4
20260507010022 54 227 0.9 4.3 0.00 0.28 0.00 89 1007.4
20260507005523 54 240 1.7 4.3 0.00 0.28 0.00 89 1007.3
20260507005025 54 220 0.9 2.6 0.00 0.28 0.00 90 1007.2
20260507004526 54 236 0.9 2.6 0.00 0.28 0.00 90 1007.2
20260507004028 54 251 1.7 4.3 0.00 0.28 0.00 90 1007.1
20260507003529 55 278 1.7 5.2 0.00 0.28 0.00 90 1007.1
20260507003030 55 253 1.7 6.1 0.00 0.28 0.00 90 1007.1
20260507002532 55 254 2.6 5.2 0.00 0.28 0.00 90 1007.0
20260507002033 55 262 1.7 3.5 0.00 0.28 0.00 90 1007.0
20260507001535 55 224 0.9 1.7 0.00 0.28 0.00 90 1006.9
20260507001036 55 223 0.9 1.7 0.00 0.28 0.00 89 1007.0
20260507000538 55 225 0.9 3.5 0.00 0.28 0.00 89 1006.8
20260507000039 55 249 0.0 0.9 0.00 0.28 0.00 89 1006.7
20260506235541 55 204 0.0 0.0 0.00 0.28 0.00 89 1006.5
20260506235042 55 180 0.0 0.0 0.00 0.28 0.00 89 1006.5
20260506234544 56 260 0.9 1.7 0.00 0.28 0.00 89 1006.6
20260506234045 56 210 0.0 1.7 0.00 0.28 0.00 90 1006.6
20260506233547 56 246 0.9 1.7 0.00 0.28 0.00 90 1006.7
20260506233048 56 250 1.7 2.6 0.00 0.30 0.00 90 1006.7
20260506232550 56 133 0.0 0.9 0.00 0.30 0.00 89 1006.7
20260506232051 56 264 0.0 1.7 0.00 0.30 0.00 89 1006.7
20260506231553 56 197 0.0 0.0 0.00 0.30 0.00 89 1006.6
20260506231054 56 223 0.9 2.6 0.00 0.30 0.00 89 1006.6
20260506230556 56 80 0.0 0.9 0.00 0.32 0.00 89 1006.6
20260506230057 56 251 0.0 1.7 0.00 0.32 0.00 89 1006.5
20260506225558 56 244 0.9 3.5 0.00 0.32 0.00 89 1006.7
20260506225100 56 223 0.0 1.7 0.00 0.32 0.00 89 1006.7
20260506224601 56 259 0.9 2.6 0.00 0.32 0.00 89 1006.7
20260506224103 56 227 0.0 0.9 0.00 0.32 0.00 89 1006.6
20260506223604 56 258 0.9 3.5 0.00 0.32 0.00 88 1006.6
20260506223106 56 274 0.0 0.9 0.00 0.32 0.00 88 1006.6
20260506222607 56 256 0.0 1.7 0.00 0.32 0.00 88 1006.5
20260506222109 56 267 0.0 1.7 0.00 0.32 0.00 88 1006.5
20260506221606 56 227 0.0 0.0 0.02 0.32 0.00 88 1006.4
20260506221102 56 120 0.0 0.9 0.04 0.32 0.00 88 1006.2
20260506220559 56 93 0.0 0.9 0.06 0.32 0.00 88 1006.2
20260506220056 56 121 0.0 1.7 0.08 0.32 0.00 88 1006.2
20260506215552 56 91 0.9 2.6 0.08 0.34 0.00 88 1006.3
20260506215049 57 113 1.7 2.6 0.08 0.36 0.00 88 1006.3
20260506214546 57 100 0.9 2.6 0.08 0.36 0.00 87 1006.3
20260506214042 57 94 0.9 2.6 0.10 0.36 0.00 87 1006.3
20260506213539 57 93 1.7 4.3 0.10 0.38 0.00 87 1006.3
20260506213036 57 112 0.9 1.7 0.12 0.38 0.00 87 1006.5
20260506212532 57 138 0.0 0.9 0.18 0.38 0.00 87 1006.5
20260506212029 57 190 0.0 1.7 0.20 0.38 0.00 87 1006.6
20260506211525 57 106 0.0 1.7 0.18 0.36 0.00 87 1006.4
20260506211021 57 144 0.0 1.7 0.18 0.34 0.00 87 1006.4
20260506210517 57 188 0.0 0.9 0.16 0.34 0.00 87 1006.5
20260506210013 57 207 0.9 5.2 0.14 0.32 0.00 87 1006.6
20260506205509 57 229 1.7 4.3 0.14 0.34 0.00 86 1006.7
20260506205006 57 231 0.9 2.6 0.14 0.36 0.00 86 1006.7
20260506204503 57 222 0.9 4.3 0.14 0.36 0.00 86 1006.7
20260506203959 57 245 0.9 3.5 0.12 0.34 0.00 86 1006.6
20260506203456 57 258 0.0 1.7 0.12 0.34 0.00 86 1006.6
20260506202951 58 231 0.9 2.6 0.10 0.32 0.00 86 1006.5
20260506202446 58 227 1.7 2.6 0.04 0.28 0.00 86 1006.4
20260506201941 58 218 0.9 0.9 0.02 0.26 0.00 86 1006.1
20260506201438 58 161 0.9 0.9 0.02 0.26 0.00 85 1005.6
20260506200944 58 70 0.9 2.6 0.00 0.24 0.00 85 1005.2
20260506200446 58 198 0.9 2.6 0.00 0.24 0.00 85 1005.5
20260506195947 58 245 0.9 1.7 0.00 0.24 0.00 85 1005.5
20260506195449 58 223 1.7 2.6 0.00 0.24 0.00 85 1005.2
20260506194950 58 90 0.0 0.0 0.00 0.24 0.00 85 1005.1
20260506194452 58 232 0.9 2.6 0.00 0.24 0.00 85 1005.2
20260506193953 58 76 0.9 2.6 0.00 0.24 0.00 85 1005.2
20260506193454 58 260 0.0 0.9 0.00 0.24 0.00 84 1005.0
20260506192956 58 96 0.0 0.9 0.00 0.24 0.00 84 1004.9
20260506192457 58 86 0.9 1.7 0.00 0.24 0.00 84 1005.0
20260506191959 58 61 0.9 2.6 0.00 0.24 0.00 84 1005.0
20260506191500 58 69 0.9 2.6 0.00 0.24 0.00 84 1005.1
20260506191002 58 342 1.7 4.3 0.00 0.24 0.00 84 1005.5
20260506190503 58 187 0.9 2.6 0.00 0.24 0.00 84 1005.2
20260506190006 58 118 0.0 0.0 0.00 0.24 0.00 83 1004.9
20260506185506 58 90 0.0 0.0 0.00 0.24 0.00 83 1004.8
20260506185008 58 75 0.9 3.5 0.00 0.24 0.00 83 1004.7
20260506184509 58 96 0.9 4.3 0.00 0.24 0.00 83 1004.7
20260506184011 58 100 0.0 0.9 0.00 0.24 0.00 83 1004.6
20260506183512 58 99 0.0 2.6 0.00 0.24 0.00 83 1004.4
20260506183014 59 104 0.9 2.6 0.00 0.24 0.00 82 1004.2
20260506182515 59 117 1.7 6.1 0.00 0.24 0.00 82 1004.0
20260506182016 59 114 1.7 3.5 0.00 0.24 0.00 82 1003.9
20260506181518 59 108 1.7 2.6 0.00 0.24 0.00 82 1003.8
20260506181019 60 119 1.7 2.6 0.00 0.24 0.00 82 1003.8
20260506180521 60 116 1.7 3.5 0.00 0.24 0.00 82 1003.8
20260506180022 60 96 1.7 2.6 0.00 0.24 0.00 82 1003.8
20260506175524 60 124 0.9 1.7 0.00 0.24 0.00 82 1003.8
20260506175025 60 133 1.7 3.5 0.00 0.24 0.00 82 1003.8
20260506174527 60 130 0.9 1.7 0.00 0.24 0.00 82 1003.8
20260506174028 60 122 0.0 1.7 0.00 0.24 0.00 81 1003.9
20260506173530 59 131 0.9 1.7 0.00 0.24 0.00 81 1004.0
20260506173031 59 126 0.0 0.9 0.00 0.24 0.00 81 1003.9
20260506172533 59 136 0.0 0.9 0.00 0.24 0.00 80 1004.0
20260506172034 59 135 0.9 2.6 0.00 0.24 0.00 80 1004.0
20260506171535 60 151 0.9 2.6 0.00 0.24 0.00 79 1004.0
20260506171037 60 129 0.9 1.7 0.00 0.24 0.00 79 1003.8
20260506170538 60 93 0.0 2.6 0.00 0.24 0.00 79 1003.8
20260506170035 61 131 1.7 3.5 0.02 0.24 0.00 78 1004.0
20260506165532 61 125 0.9 2.6 0.04 0.24 0.00 78 1004.0
20260506165028 62 121 0.0 0.9 0.04 0.24 0.00 78 1004.1
20260506164525 62 117 0.0 0.0 0.04 0.24 0.00 78 1004.0
20260506164022 62 109 0.9 1.7 0.06 0.24 0.00 78 1004.1
20260506163519 62 120 1.7 2.6 0.06 0.24 0.00 78 1004.2
20260506163015 62 156 0.9 2.6 0.06 0.24 0.00 77 1004.2
20260506162512 62 109 0.0 0.9 0.06 0.24 0.00 76 1004.3
20260506162009 62 267 1.7 2.6 0.06 0.24 0.00 76 1004.4
20260506161505 62 222 1.7 4.3 0.06 0.24 0.00 76 1004.5
20260506161002 62 172 1.7 2.6 0.06 0.24 0.00 75 1004.0
20260506160459 61 90 0.9 2.6 0.06 0.24 0.00 74 1003.7
20260506155955 62 113 0.0 0.0 0.04 0.22 0.00 73 1004.3
20260506155451 62 135 0.0 0.0 0.02 0.20 0.00 73 1004.5
20260506154947 62 215 0.0 1.7 0.02 0.20 0.00 72 1004.6
20260506154444 63 247 0.9 2.6 0.02 0.20 0.00 71 1004.6
20260506153951 64 237 0.9 2.6 0.00 0.18 0.00 70 1004.5
20260506153452 65 301 2.6 5.2 0.00 0.18 0.00 69 1004.4
20260506152954 66 310 2.6 5.2 0.00 0.18 0.00 69 1004.3
20260506152455 67 283 0.9 3.5 0.00 0.18 0.00 68 1004.5
20260506151957 68 11 0.9 2.6 0.00 0.18 0.00 67 1004.5
20260506151458 69 73 0.9 2.6 0.00 0.18 0.00 67 1004.6
20260506151000 70 98 0.9 4.3 0.00 0.18 0.00 67 1004.6
20260506150501 71 85 0.0 0.9 0.00 0.18 0.00 66 1004.5
20260506150003 72 109 0.0 1.7 0.00 0.18 0.00 65 1004.4
20260506145504 73 95 0.9 2.6 0.00 0.18 0.00 65 1004.4
20260506145006 75 95 0.0 2.6 0.00 0.18 0.00 64 1004.5
20260506144507 76 141 0.0 0.0 0.00 0.18 0.00 63 1004.6
20260506144008 78 168 0.0 1.7 0.00 0.18 0.00 62 1004.6
20260506143510 80 37 0.9 2.6 0.00 0.18 0.00 61 1004.6
20260506143012 81 39 0.9 2.6 0.00 0.18 0.00 61 1004.6
20260506142513 83 349 0.9 2.6 0.00 0.18 0.00 60 1004.7
20260506142015 84 3 1.7 4.3 0.00 0.18 0.00 60 1004.8
20260506141516 86 299 1.7 4.3 0.00 0.18 0.00 60 1004.8
20260506141017 88 303 0.9 2.6 0.00 0.18 0.00 59 1004.9
20260506140519 89 303 1.7 3.5 0.00 0.18 0.00 59 1004.9
20260506140020 91 346 0.9 2.6 0.00 0.18 0.00 59 1004.9
20260506135522 93 295 0.9 1.7 0.00 0.18 0.00 58 1005.0
20260506135023 95 314 0.9 2.6 0.00 0.18 0.00 57 1005.0
20260506134525 97 332 0.9 1.7 0.00 0.18 0.00 57 1005.1
20260506134026 100 139 0.9 3.5 0.00 0.18 0.00 56 1005.1
20260506133528 102 195 0.9 2.6 0.00 0.18 0.00 55 1005.2
20260506133029 103 43 2.6 5.2 0.00 0.18 0.00 56 1005.3
20260506132530 103 288 0.9 2.6 0.00 0.18 0.00 58 1005.3
20260506132032 103 335 1.7 3.5 0.00 0.18 0.00 58 1005.4
20260506131533 106 230 1.7 4.3 0.00 0.18 0.00 57 1005.5
20260506131035 107 270 2.6 7.8 0.00 0.18 0.00 58 1005.6
20260506130536 106 115 0.9 2.6 0.00 0.18 0.00 61 1005.7
20260506130038 105 181 1.7 2.6 0.00 0.18 0.00 63 1005.8
20260506125539 105 252 1.7 6.1 0.00 0.18 0.00 65 1006.0
20260506125040 104 302 1.7 4.3 0.00 0.18 0.00 68 1006.0
20260506124543 102 283 1.7 2.6 0.00 0.18 0.00 70 1006.0
20260506124043 100 286 1.7 2.6 0.00 0.18 0.00 71 1006.1
20260506123545 99 238 1.7 6.1 0.00 0.18 0.00 70 1006.2
20260506123046 98 250 1.7 3.5 0.00 0.18 0.00 70 1006.3
20260506122547 98 306 2.6 4.3 0.00 0.18 0.00 70 1006.3
20260506122049 96 286 2.6 6.1 0.00 0.18 0.00 71 1006.4
20260506121550 94 151 0.9 3.5 0.00 0.18 0.00 70 1006.4
20260506121052 94 301 2.6 5.2 0.00 0.18 0.00 68 1006.4
20260506120553 96 300 3.5 6.1 0.00 0.18 0.00 68 1006.5
20260506120055 96 107 1.7 3.5 0.00 0.18 0.00 68 1006.5
20260506115556 94 250 1.7 3.5 0.00 0.18 0.00 68 1006.4
20260506115058 94 218 1.7 2.6 0.00 0.18 0.00 68 1006.5
20260506114559 94 261 2.6 8.7 0.00 0.18 0.00 68 1006.4
20260506114101 93 235 2.6 7.0 0.00 0.18 0.00 67 1006.5
20260506113602 93 254 3.5 9.6 0.00 0.18 0.00 68 1006.6
20260506113104 93 309 4.3 6.1 0.00 0.18 0.00 68 1006.7
20260506112605 92 262 3.5 8.7 0.00 0.18 0.00 69 1006.7
20260506112106 92 198 1.7 4.3 0.00 0.18 0.00 69 1006.8
20260506111608 92 296 2.6 4.3 0.00 0.18 0.00 68 1006.8
20260506111109 92 337 3.5 7.8 0.00 0.18 0.00 69 1006.8
20260506110611 91 281 3.5 7.8 0.00 0.18 0.00 68 1006.9
20260506110112 90 239 1.7 3.5 0.00 0.18 0.00 70 1006.9
20260506105614 90 255 1.7 6.1 0.00 0.18 0.00 70 1006.9
20260506105115 89 247 2.6 5.2 0.00 0.18 0.00 70 1006.9
20260506104617 89 280 1.7 3.5 0.00 0.18 0.00 70 1007.0
20260506104118 90 235 2.6 7.8 0.00 0.18 0.00 69 1007.1
20260506103620 90 331 2.6 5.2 0.00 0.18 0.00 70 1007.1
20260506103121 90 273 3.5 8.7 0.00 0.18 0.00 70 1007.0
20260506102622 91 262 2.6 5.2 0.00 0.18 0.00 70 1007.1
20260506102124 91 257 2.6 6.1 0.00 0.18 0.00 71 1007.0
20260506101625 88 273 3.5 6.1 0.00 0.18 0.00 72 1007.1
20260506101127 87 238 3.5 8.7 0.00 0.18 0.00 73 1007.1
20260506100628 87 281 2.6 4.3 0.00 0.18 0.00 73 1007.0
20260506100130 87 275 4.3 7.0 0.00 0.18 0.00 73 1007.0
20260506095631 86 252 2.6 6.1 0.00 0.18 0.00 74 1007.0
20260506095133 84 278 3.5 9.6 0.00 0.18 0.00 74 1007.0
20260506094634 83 244 3.5 8.7 0.00 0.18 0.00 75 1007.0
20260506094136 82 262 4.3 6.1 0.00 0.18 0.00 76 1007.0
20260506093637 80 264 2.6 4.3 0.00 0.18 0.00 77 1007.0
20260506093138 79 328 3.5 6.1 0.00 0.18 0.00 76 1006.9
20260506092640 79 280 2.6 5.2 0.00 0.18 0.00 76 1006.9
20260506092141 79 279 3.5 7.8 0.00 0.18 0.00 76 1006.9
20260506091643 79 226 3.5 5.2 0.00 0.18 0.00 77 1006.9
20260506091144 79 251 4.3 7.8 0.00 0.18 0.00 76 1006.9
20260506090646 78 270 3.5 6.1 0.00 0.18 0.00 77 1006.9
20260506090147 77 274 5.2 11.3 0.00 0.18 0.00 78 1006.9
20260506085649 76 257 3.5 7.0 0.00 0.18 0.00 79 1006.9
20260506085150 75 265 4.3 8.7 0.00 0.18 0.00 80 1006.9
20260506084652 74 254 3.5 7.0 0.00 0.18 0.00 80 1006.8
20260506084153 74 264 4.3 7.8 0.00 0.18 0.00 80 1006.9
20260506083655 75 252 3.5 7.8 0.00 0.18 0.00 81 1006.8
20260506083156 73 287 3.5 5.2 0.00 0.18 0.00 82 1006.8
20260506082657 71 257 4.3 7.8 0.00 0.18 0.00 84 1006.8
20260506082159 70 292 2.6 4.3 0.00 0.18 0.00 84 1006.8
20260506081700 69 296 3.5 6.1 0.00 0.18 0.00 83 1006.8
20260506081202 70 320 3.5 7.0 0.00 0.18 0.00 83 1006.9